UAL3889 KAMA-KIAH

Flight info

Callsign UAL3889
Flight time 1h 16m
Altitude 35000
Route PNH CDS MQP GUSHR3
Aircraft B738/M-SDE2E3FGHIRWXY/LB1

Departure

Time 2026-04-15 02:52
Airport Rick Husband Amarillo International Airport (KAMA)

Arrival

Time 2026-04-15 04:08
Airport George Bush Intercontinental Airport (KIAH)
Time Latitude Longitude Altitude Speed Heading
2026-04-15 02:28 35.21892 -101.70645 3607 ft 0 kts 112°
2026-04-15 02:42 35.21898 -101.70664 3607 ft 4 kts 112°
2026-04-15 02:43 35.21908 -101.70695 3607 ft 4 kts 112°
2026-04-15 02:43 35.21918 -101.70725 3607 ft 4 kts 112°
2026-04-15 02:43 35.21928 -101.70755 3605 ft 4 kts 110°
2026-04-15 02:43 35.21933 -101.70785 3605 ft 4 kts 76°
2026-04-15 02:44 35.21921 -101.70813 3605 ft 3 kts 46°
2026-04-15 02:44 35.21919 -101.70816 3604 ft 1 kts 45°
2026-04-15 02:46 35.21924 -101.70810 3605 ft 3 kts 45°
2026-04-15 02:46 35.21952 -101.70775 3607 ft 9 kts 45°
2026-04-15 02:47 35.21999 -101.70717 3606 ft 10 kts 45°
2026-04-15 02:47 35.22057 -101.70710 3607 ft 10 kts 328°
2026-04-15 02:47 35.22114 -101.70722 3607 ft 9 kts 31°
2026-04-15 02:47 35.22161 -101.70667 3607 ft 9 kts 46°
2026-04-15 02:48 35.22207 -101.70610 3607 ft 10 kts 45°
2026-04-15 02:48 35.22262 -101.70540 3607 ft 13 kts 46°
2026-04-15 02:48 35.22333 -101.70451 3607 ft 16 kts 46°
2026-04-15 02:48 35.22413 -101.70349 3607 ft 18 kts 46°
2026-04-15 02:49 35.22510 -101.70228 3607 ft 21 kts 45°
2026-04-15 02:49 35.22611 -101.70101 3607 ft 21 kts 46°
2026-04-15 02:49 35.22696 -101.69994 3607 ft 20 kts 46°
2026-04-15 02:49 35.22788 -101.69876 3606 ft 20 kts 46°
2026-04-15 02:50 35.22888 -101.69824 3607 ft 15 kts 340°
2026-04-15 02:50 35.22961 -101.69900 3607 ft 14 kts 316°
2026-04-15 02:50 35.23030 -101.69982 3608 ft 13 kts 316°
2026-04-15 02:50 35.23059 -101.70061 3608 ft 11 kts 232°
2026-04-15 02:51 35.23006 -101.70126 3605 ft 12 kts 225°
2026-04-15 02:51 35.22867 -101.70302 3604 ft 60 kts 226°
2026-04-15 02:51 35.22416 -101.70870 3608 ft 124 kts 226°
2026-04-15 02:51 35.21709 -101.71772 3790 ft 162 kts 227°
2026-04-15 02:52 35.20908 -101.72805 4603 ft 166 kts 221°
2026-04-15 02:52 35.19918 -101.73458 5491 ft 166 kts 208°
2026-04-15 02:52 35.18711 -101.73786 5809 ft 200 kts 177°
2026-04-15 02:52 35.17404 -101.72864 5991 ft 243 kts 139°
2026-04-15 02:53 35.16717 -101.70832 6286 ft 280 kts 101°
2026-04-15 02:53 35.16940 -101.68425 6955 ft 285 kts 84°
2026-04-15 02:53 35.17042 -101.66021 7566 ft 281 kts 108°
2026-04-15 02:53 35.16202 -101.63956 8163 ft 270 kts 135°
2026-04-15 02:54 35.14980 -101.62167 8541 ft 283 kts 137°
2026-04-15 02:54 35.13691 -101.60302 9026 ft 298 kts 135°
2026-04-15 02:54 35.12368 -101.58306 9773 ft 305 kts 134°
2026-04-15 02:54 35.11068 -101.56266 10346 ft 317 kts 133°
2026-04-15 02:55 35.09721 -101.54089 10559 ft 342 kts 131°
2026-04-15 02:55 35.08278 -101.51692 11015 ft 355 kts 130°
2026-04-15 02:55 35.06826 -101.49223 11700 ft 360 kts 130°
2026-04-15 02:55 35.05368 -101.46710 12477 ft 364 kts 129°
2026-04-15 02:56 35.03908 -101.44175 13292 ft 367 kts 129°
2026-04-15 02:56 35.02437 -101.41611 14062 ft 370 kts 129°
2026-04-15 02:56 35.00958 -101.39031 14859 ft 372 kts 129°
2026-04-15 02:56 34.99474 -101.36439 15716 ft 373 kts 130°
2026-04-15 02:57 34.97980 -101.33833 16539 ft 375 kts 130°
2026-04-15 02:57 34.96479 -101.31218 17297 ft 379 kts 130°
2026-04-15 02:57 34.94956 -101.28565 17927 ft 386 kts 131°
2026-04-15 02:57 34.93402 -101.25866 18556 ft 391 kts 131°
2026-04-15 02:58 34.91836 -101.23146 19225 ft 393 kts 131°
2026-04-15 02:58 34.90280 -101.20443 19866 ft 396 kts 132°
2026-04-15 02:58 34.88689 -101.17680 20520 ft 399 kts 132°
2026-04-15 02:58 34.87085 -101.14898 21156 ft 402 kts 133°
2026-04-15 02:59 34.85467 -101.12095 21765 ft 406 kts 133°
2026-04-15 02:59 34.83833 -101.09265 22357 ft 410 kts 133°
2026-04-15 02:59 34.82185 -101.06414 22954 ft 413 kts 133°
2026-04-15 02:59 34.80522 -101.03537 23510 ft 417 kts 134°
2026-04-15 03:00 34.78848 -101.00645 23994 ft 420 kts 134°
2026-04-15 03:00 34.77222 -100.97837 24460 ft 422 kts 134°
2026-04-15 03:00 34.75525 -100.94908 24970 ft 425 kts 134°
2026-04-15 03:00 34.73794 -100.91926 25372 ft 429 kts 134°
2026-04-15 03:01 34.72086 -100.88987 25801 ft 433 kts 134°
2026-04-15 03:01 34.70343 -100.85988 26279 ft 435 kts 135°
2026-04-15 03:01 34.68590 -100.82973 26745 ft 437 kts 135°
2026-04-15 03:01 34.66826 -100.79941 27191 ft 440 kts 135°
2026-04-15 03:02 34.65057 -100.76904 27625 ft 442 kts 135°
2026-04-15 03:02 34.63273 -100.73846 28052 ft 445 kts 135°
2026-04-15 03:02 34.61475 -100.70764 28460 ft 448 kts 135°
2026-04-15 03:02 34.59671 -100.67677 28871 ft 450 kts 136°
2026-04-15 03:03 34.57849 -100.64559 29269 ft 453 kts 136°
2026-04-15 03:03 34.56040 -100.61468 29655 ft 455 kts 136°
2026-04-15 03:03 34.54204 -100.58332 30006 ft 458 kts 136°
2026-04-15 03:03 34.52356 -100.55178 30273 ft 460 kts 136°
2026-04-15 03:04 34.50497 -100.52007 30561 ft 462 kts 136°
2026-04-15 03:04 34.48628 -100.48824 30896 ft 464 kts 136°
2026-04-15 03:04 34.46762 -100.45645 31302 ft 463 kts 136°
2026-04-15 03:04 34.44905 -100.42481 31811 ft 459 kts 137°
2026-04-15 03:05 34.43062 -100.39342 32360 ft 454 kts 137°
2026-04-15 03:05 34.41232 -100.36234 32858 ft 451 kts 137°
2026-04-15 03:05 34.39409 -100.33145 33298 ft 450 kts 138°
2026-04-15 03:05 34.37594 -100.30074 33815 ft 448 kts 138°
2026-04-15 03:06 34.35729 -100.27082 34214 ft 441 kts 141°
2026-04-15 03:06 34.33788 -100.24220 34496 ft 439 kts 143°
2026-04-15 03:06 34.31810 -100.21405 34728 ft 440 kts 143°
2026-04-15 03:06 34.29808 -100.18589 34857 ft 443 kts 143°
2026-04-15 03:07 34.27781 -100.15742 34939 ft 449 kts 143°
2026-04-15 03:07 34.25749 -100.12870 35236 ft 449 kts 143°
2026-04-15 03:07 34.23736 -100.10000 35639 ft 447 kts 143°
2026-04-15 03:07 34.21733 -100.07133 36000 ft 445 kts 143°
2026-04-15 03:08 34.19736 -100.04275 36263 ft 446 kts 143°
2026-04-15 03:08 34.17826 -100.01545 36487 ft 446 kts 143°
2026-04-15 03:08 34.15842 -99.98712 36732 ft 447 kts 143°
2026-04-15 03:08 34.13827 -99.95837 36835 ft 451 kts 143°
2026-04-15 03:09 34.11796 -99.92945 36842 ft 453 kts 143°
2026-04-15 03:09 34.07742 -99.87160 36810 ft 448 kts 143°
2026-04-15 03:10 34.03748 -99.81463 36801 ft 443 kts 142°
2026-04-15 03:10 33.99757 -99.75800 36844 ft 443 kts 142°
2026-04-15 03:11 33.95754 -99.70130 36853 ft 445 kts 142°
2026-04-15 03:11 33.91738 -99.64449 36861 ft 446 kts 142°
2026-04-15 03:12 33.87699 -99.58741 36859 ft 448 kts 142°
2026-04-15 03:12 33.83648 -99.53024 36834 ft 449 kts 141°
2026-04-15 03:13 33.79591 -99.47305 36850 ft 450 kts 141°
2026-04-15 03:13 33.75555 -99.41624 36853 ft 449 kts 141°
2026-04-15 03:14 33.71494 -99.35919 36860 ft 449 kts 141°
2026-04-15 03:14 33.67429 -99.30219 36860 ft 449 kts 141°
2026-04-15 03:15 33.63367 -99.24530 36864 ft 448 kts 141°
2026-04-15 03:15 33.59308 -99.18856 36854 ft 447 kts 141°
2026-04-15 03:16 33.55258 -99.13203 36864 ft 446 kts 141°
2026-04-15 03:16 33.51212 -99.07564 36844 ft 444 kts 141°
2026-04-15 03:17 33.47186 -99.01961 36860 ft 442 kts 141°
2026-04-15 03:17 33.43179 -98.96394 36869 ft 440 kts 141°
2026-04-15 03:18 33.39180 -98.90848 36877 ft 439 kts 141°
2026-04-15 03:18 33.35194 -98.85329 36863 ft 438 kts 141°
2026-04-15 03:19 33.31239 -98.79861 36904 ft 438 kts 141°
2026-04-15 03:19 33.27248 -98.74353 36921 ft 438 kts 141°
2026-04-15 03:20 33.23246 -98.68839 36925 ft 439 kts 140°
2026-04-15 03:20 33.19230 -98.63311 36950 ft 441 kts 140°
2026-04-15 03:21 33.15198 -98.57770 36955 ft 443 kts 140°
2026-04-15 03:21 33.09158 -98.49483 36951 ft 445 kts 140°
2026-04-15 03:22 33.05091 -98.43914 36950 ft 445 kts 140°
2026-04-15 03:22 33.01685 -98.39322 36911 ft 445 kts 140°
2026-04-15 03:23 32.96956 -98.32830 36902 ft 446 kts 139°
2026-04-15 03:23 32.93549 -98.28160 36926 ft 445 kts 139°
2026-04-15 03:24 32.89475 -98.22606 36947 ft 445 kts 139°
2026-04-15 03:24 32.85421 -98.17096 36960 ft 445 kts 138°
2026-04-15 03:25 32.81337 -98.11555 36965 ft 446 kts 138°
2026-04-15 03:25 32.77239 -98.06001 36965 ft 447 kts 138°
2026-04-15 03:26 32.73131 -98.00441 36965 ft 448 kts 138°
2026-04-15 03:26 32.68935 -97.94991 36944 ft 447 kts 140°
2026-04-15 03:27 32.64628 -97.89662 36960 ft 448 kts 141°
2026-04-15 03:27 32.60283 -97.84294 36962 ft 456 kts 140°
2026-04-15 03:28 32.55861 -97.78797 36968 ft 462 kts 140°
2026-04-15 03:28 32.51417 -97.73254 36966 ft 465 kts 140°
2026-04-15 03:29 32.46984 -97.67727 36962 ft 465 kts 140°
2026-04-15 03:29 32.42527 -97.62182 36955 ft 464 kts 140°
2026-04-15 03:30 32.38085 -97.56666 36916 ft 463 kts 141°
2026-04-15 03:30 32.33664 -97.51188 36947 ft 463 kts 141°
2026-04-15 03:31 32.29175 -97.45636 36962 ft 465 kts 141°
2026-04-15 03:31 32.24694 -97.40101 36972 ft 467 kts 141°
2026-04-15 03:32 32.20195 -97.34551 36988 ft 469 kts 141°
2026-04-15 03:32 32.15670 -97.28977 37008 ft 470 kts 141°
2026-04-15 03:33 32.11129 -97.23391 37017 ft 471 kts 142°
2026-04-15 03:33 32.06597 -97.17823 37023 ft 471 kts 142°
2026-04-15 03:34 32.02092 -97.12298 37024 ft 469 kts 142°
2026-04-15 03:34 31.97543 -97.06727 37024 ft 468 kts 142°
2026-04-15 03:35 31.93059 -97.01245 37012 ft 466 kts 142°
2026-04-15 03:35 31.88553 -96.95748 36685 ft 469 kts 142°
2026-04-15 03:36 31.86295 -96.92996 36185 ft 466 kts 142°
2026-04-15 03:36 31.84048 -96.90256 35605 ft 465 kts 142°
2026-04-15 03:36 31.81803 -96.87523 34985 ft 465 kts 142°
2026-04-15 03:36 31.79557 -96.84791 34398 ft 465 kts 141°
2026-04-15 03:37 31.77315 -96.82064 33940 ft 461 kts 141°
2026-04-15 03:37 31.75095 -96.79364 33434 ft 458 kts 141°
2026-04-15 03:37 31.72886 -96.76681 32957 ft 455 kts 141°
2026-04-15 03:37 31.70694 -96.74020 32490 ft 451 kts 141°
2026-04-15 03:38 31.68516 -96.71380 32048 ft 447 kts 141°
2026-04-15 03:38 31.66359 -96.68767 31615 ft 444 kts 141°
2026-04-15 03:38 31.64214 -96.66171 31181 ft 441 kts 141°
2026-04-15 03:38 31.62113 -96.63632 30742 ft 438 kts 141°
2026-04-15 03:39 31.59994 -96.61071 30314 ft 436 kts 141°
2026-04-15 03:39 31.57888 -96.58527 29861 ft 433 kts 142°
2026-04-15 03:39 31.55793 -96.55998 29367 ft 430 kts 142°
2026-04-15 03:39 31.53717 -96.53493 28906 ft 426 kts 142°
2026-04-15 03:40 31.51585 -96.51138 28443 ft 413 kts 153°
2026-04-15 03:40 31.49138 -96.49548 28086 ft 397 kts 161°
2026-04-15 03:40 31.46680 -96.48105 27613 ft 394 kts 161°
2026-04-15 03:40 31.44238 -96.46653 27184 ft 391 kts 161°
2026-04-15 03:41 31.41830 -96.45202 26742 ft 388 kts 160°
2026-04-15 03:41 31.39441 -96.43750 26328 ft 385 kts 160°
2026-04-15 03:41 31.37075 -96.42305 25910 ft 382 kts 160°
2026-04-15 03:41 31.34726 -96.40869 25479 ft 380 kts 160°
2026-04-15 03:42 31.32389 -96.39441 25070 ft 378 kts 160°
2026-04-15 03:42 31.30060 -96.38018 24669 ft 376 kts 160°
2026-04-15 03:42 31.27750 -96.36609 24224 ft 375 kts 160°
2026-04-15 03:42 31.25444 -96.35203 23818 ft 373 kts 160°
2026-04-15 03:43 31.23142 -96.33800 23391 ft 372 kts 160°
2026-04-15 03:43 31.20860 -96.32410 22950 ft 369 kts 159°
2026-04-15 03:43 31.18590 -96.31027 22519 ft 367 kts 159°
2026-04-15 03:43 31.16336 -96.29655 22139 ft 364 kts 159°
2026-04-15 03:44 31.14127 -96.28311 21761 ft 362 kts 159°
2026-04-15 03:44 31.11904 -96.26960 21372 ft 360 kts 159°
2026-04-15 03:44 31.09684 -96.25611 20995 ft 358 kts 159°
2026-04-15 03:44 31.07478 -96.24272 20612 ft 356 kts 159°
2026-04-15 03:45 31.05279 -96.22937 20240 ft 355 kts 159°
2026-04-15 03:45 31.03094 -96.21611 19880 ft 353 kts 158°
2026-04-15 03:45 31.00917 -96.20291 19499 ft 352 kts 158°
2026-04-15 03:45 30.98752 -96.18949 19115 ft 352 kts 157°
2026-04-15 03:46 30.96610 -96.17568 18733 ft 352 kts 156°
2026-04-15 03:46 30.94473 -96.16177 18359 ft 351 kts 156°
2026-04-15 03:46 30.92368 -96.14809 17964 ft 350 kts 156°
2026-04-15 03:46 30.90250 -96.13439 17569 ft 347 kts 156°
2026-04-15 03:47 30.88144 -96.12082 17194 ft 344 kts 156°
2026-04-15 03:47 30.86052 -96.10736 16822 ft 342 kts 155°
2026-04-15 03:47 30.83978 -96.09403 16433 ft 340 kts 155°
2026-04-15 03:47 30.81909 -96.08074 16017 ft 338 kts 155°
2026-04-15 03:48 30.79898 -96.06783 15655 ft 336 kts 154°
2026-04-15 03:48 30.77992 -96.05559 15331 ft 334 kts 154°
2026-04-15 03:48 30.76109 -96.04350 14996 ft 332 kts 154°
2026-04-15 03:48 30.74089 -96.03054 14645 ft 331 kts 153°
2026-04-15 03:49 30.72081 -96.01766 14290 ft 329 kts 154°
2026-04-15 03:49 30.70076 -96.00481 13925 ft 328 kts 153°
2026-04-15 03:49 30.68082 -95.99204 13541 ft 326 kts 153°
2026-04-15 03:49 30.66105 -95.97939 13166 ft 324 kts 153°
2026-04-15 03:50 30.64141 -95.96682 12814 ft 321 kts 153°
2026-04-15 03:50 30.62192 -95.95436 12462 ft 318 kts 153°
2026-04-15 03:50 30.60257 -95.94198 12070 ft 315 kts 153°
2026-04-15 03:50 30.58371 -95.92992 11744 ft 313 kts 153°
2026-04-15 03:51 30.56475 -95.91781 11403 ft 310 kts 153°
2026-04-15 03:51 30.54594 -95.90579 11080 ft 307 kts 153°
2026-04-15 03:51 30.52726 -95.89387 10748 ft 305 kts 153°
2026-04-15 03:51 30.50891 -95.88216 10418 ft 297 kts 153°
2026-04-15 03:52 30.49074 -95.87190 10042 ft 284 kts 165°
2026-04-15 03:52 30.47168 -95.86853 9758 ft 271 kts 175°
2026-04-15 03:52 30.45301 -95.86655 9448 ft 269 kts 176°
2026-04-15 03:52 30.43440 -95.86461 9143 ft 267 kts 176°
2026-04-15 03:53 30.41602 -95.86266 8858 ft 265 kts 176°
2026-04-15 03:53 30.39759 -95.86067 8571 ft 264 kts 176°
2026-04-15 03:53 30.37940 -95.85867 8279 ft 262 kts 175°
2026-04-15 03:53 30.36133 -95.85667 8004 ft 260 kts 176°
2026-04-15 03:54 30.34340 -95.85467 7726 ft 258 kts 176°
2026-04-15 03:54 30.32551 -95.85267 7445 ft 257 kts 175°
2026-04-15 03:54 30.30799 -95.85071 7174 ft 255 kts 175°
2026-04-15 03:55 30.27288 -95.84676 6627 ft 248 kts 176°
2026-04-15 03:55 30.25600 -95.84486 6361 ft 240 kts 175°
2026-04-15 03:55 30.23963 -95.84302 6085 ft 232 kts 175°
2026-04-15 03:55 30.22379 -95.84124 5833 ft 224 kts 175°
2026-04-15 03:56 30.20852 -95.83948 5592 ft 217 kts 175°
2026-04-15 03:56 30.19361 -95.83775 5384 ft 215 kts 175°
2026-04-15 03:56 30.17875 -95.83603 5172 ft 213 kts 175°
2026-04-15 03:56 30.16411 -95.83433 4950 ft 211 kts 175°
2026-04-15 03:57 30.14947 -95.83263 4746 ft 210 kts 174°
2026-04-15 03:57 30.13500 -95.83096 4529 ft 209 kts 174°
2026-04-15 03:57 30.12058 -95.82929 4319 ft 208 kts 174°
2026-04-15 03:57 30.10627 -95.82763 4095 ft 206 kts 174°
2026-04-15 03:58 30.09210 -95.82599 3882 ft 204 kts 174°
2026-04-15 03:58 30.07786 -95.82436 3614 ft 206 kts 175°
2026-04-15 03:58 30.06358 -95.82275 3335 ft 207 kts 173°
2026-04-15 03:58 30.04925 -95.82068 3050 ft 209 kts 165°
2026-04-15 03:59 30.03705 -95.81234 2973 ft 204 kts 143°
2026-04-15 03:59 30.02796 -95.80008 2927 ft 200 kts 130°
2026-04-15 03:59 30.01995 -95.78711 2930 ft 198 kts 131°
2026-04-15 03:59 30.01186 -95.77417 2960 ft 199 kts 130°
2026-04-15 04:00 30.00651 -95.75925 2950 ft 207 kts 103°
2026-04-15 04:00 30.00602 -95.74306 2955 ft 196 kts 98°
2026-04-15 04:00 30.00615 -95.72774 2935 ft 187 kts 98°
2026-04-15 04:00 30.00626 -95.71293 2944 ft 183 kts 97°
2026-04-15 04:01 30.00634 -95.69825 2941 ft 184 kts 97°
2026-04-15 04:01 30.00642 -95.68345 2940 ft 184 kts 97°
2026-04-15 04:01 30.00648 -95.66863 2936 ft 185 kts 98°
2026-04-15 04:01 30.00654 -95.65373 2922 ft 185 kts 98°
2026-04-15 04:02 30.00666 -95.63888 2928 ft 186 kts 96°
2026-04-15 04:02 30.00715 -95.62398 2998 ft 186 kts 97°
2026-04-15 04:02 30.00739 -95.60929 3001 ft 186 kts 98°
2026-04-15 04:02 30.00746 -95.59434 3009 ft 187 kts 99°
2026-04-15 04:03 30.00745 -95.57926 3005 ft 189 kts 98°
2026-04-15 04:03 30.00744 -95.56411 3006 ft 186 kts 99°
2026-04-15 04:03 30.00744 -95.54966 2987 ft 173 kts 99°
2026-04-15 04:03 30.00742 -95.53615 2992 ft 164 kts 100°
2026-04-15 04:04 30.00740 -95.52340 2881 ft 156 kts 101°
2026-04-15 04:04 30.00735 -95.51091 2669 ft 154 kts 100°
2026-04-15 04:04 30.00733 -95.49906 2474 ft 150 kts 100°
2026-04-15 04:04 30.00732 -95.49205 2359 ft 148 kts 100°
2026-04-15 04:05 30.00727 -95.47675 2113 ft 155 kts 101°
2026-04-15 04:05 30.00726 -95.46461 1911 ft 154 kts 99°
2026-04-15 04:05 30.00726 -95.45249 1707 ft 149 kts 99°
2026-04-15 04:05 30.00720 -95.44052 1531 ft 150 kts 98°
2026-04-15 04:06 30.00719 -95.42861 1326 ft 150 kts 98°
2026-04-15 04:06 30.00720 -95.41635 1095 ft 152 kts 96°
2026-04-15 04:06 30.00722 -95.40424 916 ft 151 kts 96°
2026-04-15 04:06 30.00725 -95.39199 688 ft 156 kts 96°
2026-04-15 04:07 30.00732 -95.37949 494 ft 155 kts 97°
2026-04-15 04:07 30.00720 -95.36707 284 ft 154 kts 94°
2026-04-15 04:07 30.00718 -95.35490 116 ft 147 kts 95°
2026-04-15 04:07 30.00714 -95.34454 105 ft 102 kts 89°
2026-04-15 04:08 30.00719 -95.33892 105 ft 40 kts 90°
2026-04-15 04:08 30.00708 -95.33647 106 ft 31 kts 101°
2026-04-15 04:08 30.00639 -95.33433 105 ft 25 kts 118°
2026-04-15 04:08 30.00557 -95.33265 105 ft 23 kts 118°
2026-04-15 04:09 30.00511 -95.33166 106 ft 23 kts 118°
2026-04-15 04:09 30.00438 -95.33018 106 ft 22 kts 128°
2026-04-15 04:09 30.00342 -95.32885 106 ft 21 kts 130°
2026-04-15 04:09 30.00247 -95.32757 106 ft 21 kts 130°
2026-04-15 04:10 30.00163 -95.32641 106 ft 20 kts 130°
2026-04-15 04:10 30.00059 -95.32543 106 ft 19 kts 167°
2026-04-15 04:10 29.99931 -95.32539 106 ft 19 kts 180°
2026-04-15 04:10 29.99815 -95.32539 106 ft 18 kts 180°
2026-04-15 04:11 29.99691 -95.32539 106 ft 18 kts 180°
2026-04-15 04:11 29.99571 -95.32538 106 ft 17 kts 180°
2026-04-15 04:11 29.99466 -95.32539 105 ft 16 kts 180°
2026-04-15 04:11 29.99360 -95.32538 104 ft 16 kts 179°
2026-04-15 04:12 29.99253 -95.32538 105 ft 15 kts 180°
2026-04-15 04:12 29.99163 -95.32539 106 ft 14 kts 180°
2026-04-15 04:12 29.99091 -95.32592 106 ft 14 kts 263°
2026-04-15 04:12 29.99089 -95.32701 106 ft 13 kts 270°
2026-04-15 04:13 29.99090 -95.32803 106 ft 13 kts 270°
2026-04-15 04:13 29.99090 -95.32905 106 ft 13 kts 270°
2026-04-15 04:13 29.99089 -95.32994 106 ft 10 kts 255°
2026-04-15 04:13 29.99030 -95.33026 106 ft 10 kts 182°
2026-04-15 04:14 29.98957 -95.33025 106 ft 12 kts 179°
2026-04-15 04:14 29.98873 -95.33025 106 ft 13 kts 180°
2026-04-15 04:14 29.98781 -95.33026 106 ft 14 kts 180°
2026-04-15 04:14 29.98701 -95.33026 106 ft 13 kts 180°
2026-04-15 04:15 29.98627 -95.33026 106 ft 13 kts 180°
2026-04-15 04:15 29.98535 -95.33027 106 ft 14 kts 179°
2026-04-15 04:15 29.98443 -95.33026 106 ft 15 kts 179°
2026-04-15 04:15 29.98344 -95.33025 106 ft 14 kts 180°
2026-04-15 04:16 29.98302 -95.33101 106 ft 13 kts 269°
2026-04-15 04:16 29.98301 -95.33202 106 ft 13 kts 269°
2026-04-15 04:16 29.98301 -95.33288 106 ft 12 kts 269°
2026-04-15 04:16 29.98300 -95.33391 106 ft 15 kts 270°
2026-04-15 04:17 29.98301 -95.33512 106 ft 16 kts 270°
2026-04-15 04:17 29.98309 -95.33627 106 ft 15 kts 275°
2026-04-15 04:17 29.98316 -95.33740 106 ft 14 kts 272°
2026-04-15 04:17 29.98316 -95.33821 106 ft 5 kts 270°
2026-04-15 04:18 29.98338 -95.33842 105 ft 5 kts 358°
2026-04-15 04:18 29.98368 -95.33840 106 ft 5 kts
2026-04-15 04:18 29.98388 -95.33839 106 ft 1 kts
2026-04-15 04:18 29.98391 -95.33839 106 ft 0 kts